Volver al catálogo

USA 372

ActivoMilitarVLEO
NORAD 59832·PAYLOAD·🇺🇸 United States

Lanzado May 22, 2024 desde Vandenberg Space Force Base

Loading…

Próximos Pases (próximas 24 horas)

TLE

ObsoletoSource: Mike McCants

Época: Sep 5, 2026, 19:00 UTC

1 59832U 24096U   26248.79197907 0.00000000  00000-0  00000-0 0    02
2 59832  70.0232 124.4346 0003004 244.2510 115.7489 14.96713879    02

Sigue USA 372 en tiempo real con AllMySat

Download on the App Store